Location: Caramacate
(10.0289°N, 66.7587°W)
Time: 21:46:01
(UTC+00:00)

Cosmos 1821 Rocket - Pass Details

Date: 05 August 2024
Orbit: 944 x 1004 km, 82.9° (Epoch: 07 September)

Event Time Altitude Azimuth Distance (km) Brightness Sun altitude
Rises 23:36:06 0° 167° (SSE) 3,686 6.7 -11.9°
Reaches altitude 10° 23:38:46 10° 160° (SSE) 2,746 6.0 -12.6°
Maximum altitude 23:44:37 41° 92° (E) 1,417 4.4 -13.9°
Drops below altitude 10° 23:50:30 10° 24° (NNE) 2,768 6.3 -15.3°
Sets 23:53:11 0° 17° (NNE) 3,720 7.1 -15.9°
